Regional Weather Roundup
Issued by NWS

Home | Current Version | Previous Version | Text Only | Print | Product List | Glossary Off
Versions: 1 2 3 4 5 6 7 8 9 10 11 12 13 14 15 16 17 18 19 20 21 22 23 24 25 26 27 28 29 30 31 32 33 34 35 36 37 38 39 40 41 42 43 44 45 46 47 48 49 50

000
ASUS43 KOAX 240410
RWRNE

WEATHER ROUNDUP FOR NEBRASKA
NATIONAL WEATHER SERVICE OMAHA NE
1000 PM CST SUN NOV 23 2014

NOTES: SATELLITE DATA IS BEING USED TO AUGMENT CLOUD COVER ABOVE
       12000 FEET.
       "FAIR" INDICATES FEW OR NO CLOUDS BELOW 12,000 FEET WITH NO
       SIGNIFICANT WEATHER AND/OR OBSTRUCTIONS TO VISIBILITY.

  * THESE STATIONS DO NOT REPORT WEATHER SUCH AS RAIN...SNOW OR FOG.

NEZ001>004-019>022-054>056-240500-
NEBRASKA PANHANDLE

CITY           SKY/WX    TMP DP  RH WIND       PRES   REMARKS
SCOTTSBLUFF    PTCLDY    29  22  75 W10       29.83F WCI  20
ALLIANCE       MOCLDY    27  18  69 W14       29.78S WCI  16
CHADRON        CLOUDY    31  22  69 W9        29.79S WCI  23
KIMBALL        PTCLDY    25  19  78 W14       29.82F WCI  13
SIDNEY         CLOUDY    29  19  66 W16       29.82S WCI  17
$$

NEZ057>060-069>072-079>082-240500-
SOUTHWEST NEBRASKA

CITY           SKY/WX    TMP DP  RH WIND       PRES   REMARKS
NORTH PLATTE   CLEAR     28  21  75 W8        29.74S WCI  20
IMPERIAL       CLEAR     33  15  47 NW13      29.79S WCI  24
LEXINGTON      CLEAR     32  21  65 NW12      29.72R WCI  23
MCCOOK         PTCLDY    33  15  47 W13       29.77R WCI  24
OGALLALA       CLEAR     36  20  53 NW18G24   29.77S WCI  25
$$

NEZ005>010-023>029-035>040-094-240500-
NORTH CENTRAL NEBRASKA

CITY           SKY/WX    TMP DP  RH WIND       PRES   REMARKS
VALENTINE      CLOUDY    33  21  61 NW24G31   29.68F WCI  20
AINSWORTH      CLOUDY    32  21  63 NW23G41   29.67S WCI  19
BROKEN BOW     PTCLDY    35  23  61 NW20      29.66F WCI  24
O`NEILL        PTCLDY    31  23  73 NW21G28   29.64S WCI  18
ORD            MOCLDY    35  22  58 NW24G35   29.65S WCI  23
THEDFORD       CLEAR     37  21  53 NW21G33   29.69S WCI  26
$$

NEZ041-046>049-061>064-073>077-083>087-240500-
SOUTH CENTRAL NEBRASKA

CITY           SKY/WX    TMP DP  RH WIND       PRES   REMARKS
AURORA         CLEAR     35  26  71 NW20G26   29.64S WCI  24
HASTINGS       MOCLDY    37  24  59 NW18G29   29.66S WCI  27
HEBRON         MOCLDY    36  26  68 NW9       29.64S WCI  29
HOLDREGE       CLEAR     34  20  55 NW12G18   29.70S WCI  26
KEARNEY *      CLEAR     34  19  55 W12       29.70S WCI  25
YORK           CLEAR     34  25  69 N18G25    29.63R WCI  23
$$

NEZ011>018-030>034-042>045-240500-
NORTHEAST NEBRASKA

CITY           SKY/WX    TMP DP  RH WIND       PRES   REMARKS
NORFOLK        CLOUDY    32  20  61 NW28G37   29.59S WCI  18
ALBION         MOCLDY    33  22  63 NW21G33   29.61F WCI  21
BLAIR          CLOUDY    36  23  58 NW20G38   29.54R WCI  26
COLUMBUS *     CLOUDY    36  21  55 NW28G33   29.62R WCI  23
FREMONT        PTCLDY    35  23  61 NW31G37   29.59R WCI  22
TEKAMAH        CLOUDY    37  24  59 NW24      29.55S WCI  26
WAYNE          CLOUDY    32  23  69 NW17G30   29.58S WCI  21
$$

NEZ050>053-065>068-078-088>093-240500-
SOUTHEAST NEBRASKA

CITY           SKY/WX    TMP DP  RH WIND       PRES   REMARKS
LINCOLN        MOCLDY    40  25  55 NW18G28   29.59S WCI  31
OMAHA EPPLEY   CLOUDY    39  25  57 NW31G44   29.55R WCI  27
BEATRICE       MOCLDY    39  25  58 NW25G32   29.59S WCI  28
FALLS CITY     CLOUDY    42  31  64 NW23G33   29.51S
NEBRASKA CITY  CLOUDY    39  28  63 NW23      29.53R WCI  29
PLATTSMOUTH    CLOUDY    39  27  60 NW23G38   29.52S WCI  29
$$

NEZ044-045-051>053-067-240500-
OMAHA AREA

CITY           SKY/WX    TMP DP  RH WIND       PRES   REMARKS
OMAHA EPPLEY   CLOUDY    39  25  57 NW31G44   29.55R WCI  27
BLAIR          CLOUDY    36  23  58 NW20G38   29.54R WCI  26
FREMONT        PTCLDY    35  23  61 NW31G37   29.59R WCI  22
MILLARD        CLOUDY    40  26  57 NW28G38   29.55R WCI  29
OFFUTT AFB     CLOUDY    40  27  58 NW24G33   29.53R WCI  30
PLATTSMOUTH    CLOUDY    39  27  60 NW23G38   29.52S WCI  29
WAHOO          CLOUDY    36  24  60 NW23G30   29.57R WCI  25
$$


USA.gov is the U.S. government's official web portal to all federal, state and local government web resources and services.